Погода в Марьяновке

Украина / Запорожская область     47°07′09″N   35°17′13″E
темп.,
°C
ветер,
м/с
пор.,
м/с
влажн.,
%
обл.,
%
осадки,
мм/ч
давл.,
гПа
погр.,
м
22 апреля, чт
чт2200:00+8юз38895 0.0 1019150
03:00+7юз33925 0.0 102056
06:00+6юз22945 0.0 102135
09:00+11ююз33744 0.0 1022505
12:00+15ююз335412 0.0 10221473
15:00+17ююз4445100 0.1 10212003
18:00+12ю61071100 0.3 1021349
21:00+10ююз48845 0.3 1022145
23 апреля, пт
пт2300:00+8юз34850 0.0 102273
03:00+8ююз33890 0.0 102247
06:00+7ююз358718 0.0 102280
09:00+13ююз5862100 0.0 1021597
12:00+16ю675071 0.0 10201295
15:00+17ю684243 0.0 10181899
18:00+14ю6863100 0.0 1017492
21:00+11ююз4880100 0.4 1018259
24 апреля, сб
сб2400:00+10юз377899 0.1 1017186
03:00+9з488997 0.2 1016464
06:00+8сз488845 0.5 1017564
09:00+10сз57650 0.5 1019909
12:00+13зсз79425 0.0 10192183
15:00+14з81135100 0.0 10182791
18:00+11зсз911555 0.0 10201581
21:00+6з48555 0.0 1022172
25 апреля, вс
вс2500:00+5сз3458100 0.0 102361
03:00+4зсз3561100 0.0 102373
06:00+3сз336868 0.0 102339
09:00+9зсз234784 0.0 1023879
12:00+11сз3336100 0.0 10221748
15:00+13сз223467 0.0 10211922
18:00+13с2238100 0.0 10201457
21:00+7ююз3662100 0.0 1021117
26 апреля, пн
пн2600:00+5юз356389 0.0 102089
03:00+5з35668 0.0 101992
06:00+4з3469100 0.0 101968
09:00+10зюз464666 0.0 1019664
12:00+8сз7780100 0.1 1019723
15:00+13зсз474549 0.1 10182001
18:00+12сз574140 0.0 10182126
21:00+7з345417 0.0 101958